Japanese version Home page |
Updated on December 18, 2022 |
|
Orbital ElementsEpoch 2022 Jan. 21.0 TT = JDT 2459600.5 T 2021 June 23.56553 TT Rudenko q 3.2469468 (2000.0) P Q n 0.05765393 Peri. 313.09297 -0.05991454 -0.99267048 a 6.6361590 Node 139.98057 +0.95669193 -0.08711087 e 0.5107190 Incl. 9.39357 +0.28486979 +0.08376765 P 17.1 From 215 observations 2005 Jan. 17-2022 Feb. 2, mean residual 0".4.
|
Magnitudes Graphm1 = 11.5 + 5 log d + 10.0 log r(t - 150)
|
The orbital elements are published on M.P.E.C. 2022-C56.
|